Home   Weather   Berbérati   Past weeks

Flag for Central African Republic Past Weather in Berbérati, Central African Republic — Yesterday and Last 2 Weeks

72 °F

Passing clouds.

Feels Like: 65 °F
Forecast: 69 / 84 °F
Wind: 5 mph from North

Location: Bangui Airport

Current Time: Oct 28, 2016 at 10:54:00 PM

Latest Report: Oct 28, 2016 at 10:00 PM

Visibility: 5 mi

Pressure: 29.89 "Hg (27.88 "Hg at 600m altitude)

Humidity: 100%

Dew Point: 72 °F

Location of BerbératiLocation

Past Weather in Berbérati — Graph


Berbérati Temperature Yesterday

Maximum temperature yesterday: 88 °F (at 4:00 PM)
Minimum temperature yesterday: 72 °F (at 12:00 AM)
Average temperature yesterday: 78 °F

High & Low Weather Summary for the Past Weeks

High97 °F (Oct 25, 2:00 PM)100% (Oct 13, 9:00 PM)29.95 "Hg (Oct 13, 9:00 PM)
Low68 °F (Oct 17, 4:00 AM)47% (Oct 25, 2:00 PM)29.62 "Hg (Oct 25, 4:00 PM)
Average78 °F84%29.84 "Hg
* Reported Oct 13 9:00 PM — Oct 28 9:00 PM, Berbérati, Weather by CustomWeather, © 2016

Note: Actual official high and low records may vary slightly from our data, if they occured in-between our weather recording intervals... More about our weather records


Berbérati Weather History for the Previous 24 Hours

Scroll right to see more
Time TempWeatherWind HumidityBarometerVisibility
9:00 PM
Fri, Oct 28
73 °FPassing clouds.3 mph94%29.89 "Hg4 mi
8:00 PM73 °FPassing clouds.No wind100%29.86 "Hg4 mi
7:00 PM73 °FThunderstorms. Passing clouds.3 mph100%29.86 "Hg4 mi
6:00 PM73 °FThunderstorms. Passing clouds.6 mph94%29.80 "Hg4 mi
5:00 PM73 °FThunderstorms. Scattered clouds.No wind100%29.80 "Hg5 mi
4:00 PM73 °FThunderstorms. Partly sunny.6 mph94%29.83 "Hg5 mi
3:00 PM73 °FThunderstorms. Partly sunny.6 mph83%29.83 "Hg5 mi
2:00 PM81 °FThunderstorms. Partly sunny.8 mph74%29.80 "Hg5 mi
1:00 PM81 °FThunderstorms. Partly sunny.7 mph74%29.80 "HgN/A
12:00 PM90 °FPartly sunny.8 mph63%29.83 "HgN/A
11:00 AM88 °FScattered clouds.2 mph62%29.89 "HgN/A
10:00 AM82 °FScattered clouds.2 mph84%29.92 "HgN/A
9:00 AM81 °FPassing clouds.No wind84%29.92 "Hg4 mi
8:00 AM77 °FPassing clouds.No wind94%29.92 "Hg5 mi
7:00 AM75 °FPassing clouds.No wind100%29.89 "Hg4 mi
6:00 AM73 °FLight rain. Passing clouds.No wind100%29.86 "Hg4 mi
5:00 AM73 °FPassing clouds.No wind100%29.86 "Hg5 mi
4:00 AM75 °FPassing clouds.No wind94%29.83 "Hg5 mi
3:00 AM75 °FClear.No wind100%29.83 "Hg4 mi
2:00 AM75 °FClear.2 mph94%29.83 "Hg4 mi
1:00 AM75 °FClear.5 mph94%29.86 "Hg4 mi
12:00 AM75 °FClear.No wind94%29.86 "Hg4 mi
11:00 PM
Thu, Oct 27
75 °FClear.7 mph94%29.86 "Hg4 mi
10:00 PM75 °FPassing clouds.No wind100%29.86 "Hg5 mi
Weather by CustomWeather, © 2016

See weather overviewHow to use our weather pages